• In Hungary
  • List of Countries
  • For 7 days
  • Water Temperature
  • Satellite Maps
  • Weather Map
  • News
  • Weather Widgets
  • user-avatar
    Login

    Hourly Weather Klagenfurt

    Today, 27 May, Sunday

    Time Temperature Precipitation Wind Pressure Humidity
    00:00 +13°C° 0.1 mm 0 mps 693 mmHg 94%
    01:00 +12°C° 0 mm 0 mps 693 mmHg 94%
    02:00 +13°C° 0.1 mm 1 mps 693 mmHg 94%
    03:00 +13°C° 0.1 mm 1 mps 693 mmHg 94%
    04:00 +13°C° 0.1 mm 1 mps 693 mmHg 95%
    05:00 +14°C° 0.1 mm 1 mps 693 mmHg 90%
    06:00 +15°C° 0.1 mm 0 mps 693 mmHg 86%
    07:00 +17°C° 0 mm 0 mps 694 mmHg 79%
    08:00 +21°C° 0.4 mm 1 mps 694 mmHg 73%
    09:00 +22°C° 0.4 mm 1 mps 694 mmHg 68%
    10:00 +24°C° 0.4 mm 1 mps 694 mmHg 62%
    11:00 +24°C° 1.3 mm 1 mps 694 mmHg 62%
    12:00 +24°C° 1.3 mm 1 mps 694 mmHg 63%
    13:00 +25°C° 0 mm 1 mps 694 mmHg 64%
    14:00 +24°C° 2.1 mm 1 mps 694 mmHg 67%
    15:00 +24°C° 2.1 mm 1 mps 694 mmHg 69%
    16:00 +23°C° 2.1 mm 1 mps 693 mmHg 72%
    17:00 +22°C° 1.5 mm 1 mps 693 mmHg 76%
    18:00 +18°C° 1.5 mm 0 mps 693 mmHg 81%
    19:00 +17°C° 1.5 mm 0 mps 692 mmHg 85%
    20:00 +16°C° 0.6 mm 0 mps 692 mmHg 87%
    21:00 +15°C° 0.6 mm 0 mps 692 mmHg 88%
    22:00 +14°C° 0.6 mm 0 mps 692 mmHg 89%
    23:00 +14°C° 0.2 mm 0 mps 692 mmHg 90%

    Tomorrow, 28 May, Monday

    Time Temperature Precipitation Wind Pressure Humidity
    00:00 +13°C° 0.2 mm 0 mps 692 mmHg 91%
    01:00 +13°C° 0.2 mm 0 mps 692 mmHg 93%
    02:00 +12°C° 0.1 mm 0 mps 692 mmHg 93%
    03:00 +13°C° 0.1 mm 1 mps 692 mmHg 93%
    04:00 +13°C° 0.1 mm 1 mps 692 mmHg 93%
    05:00 +14°C° 0 mm 1 mps 692 mmHg 90%
    06:00 +15°C° 0 mm 0 mps 693 mmHg 87%
    07:00 +17°C° 0 mm 0 mps 693 mmHg 83%
    08:00 +21°C° 0.2 mm 1 mps 693 mmHg 75%
    09:00 +22°C° 0.2 mm 1 mps 694 mmHg 68%
    10:00 +24°C° 0.2 mm 1 mps 694 mmHg 60%
    11:00 +25°C° 0.7 mm 1 mps 694 mmHg 59%
    12:00 +25°C° 0.7 mm 1 mps 694 mmHg 59%
    13:00 +25°C° 0.7 mm 1 mps 694 mmHg 58%
    14:00 +25°C° 0.4 mm 1 mps 693 mmHg 58%
    15:00 +25°C° 0.4 mm 1 mps 693 mmHg 59%
    16:00 +25°C° 0.4 mm 1 mps 693 mmHg 59%
    17:00 +23°C° 0.2 mm 1 mps 692 mmHg 67%
    18:00 +21°C° 0.2 mm 1 mps 692 mmHg 75%
    19:00 +18°C° 0.2 mm 0 mps 692 mmHg 83%
    20:00 +17°C° 0.4 mm 0 mps 692 mmHg 86%
    21:00 +15°C° 0.4 mm 0 mps 692 mmHg 89%
    22:00 +14°C° 0.4 mm 0 mps 692 mmHg 92%
    23:00 +14°C° 0.2 mm 0 mps 692 mmHg 93%

    Day after tomorrow, 29 May, Tuesday

    Time Temperature Precipitation Wind Pressure Humidity
    00:00 +14°C° 0.2 mm 0 mps 692 mmHg 94%
    01:00 +14°C° 0.2 mm 1 mps 692 mmHg 94%
    02:00 +13°C° 0.1 mm 0 mps 691 mmHg 94%
    03:00 +13°C° 0.1 mm 0 mps 691 mmHg 95%
    04:00 +12°C° 0.1 mm 0 mps 691 mmHg 95%
    05:00 +14°C° 0 mm 0 mps 691 mmHg 91%
    06:00 +15°C° 0 mm 0 mps 691 mmHg 87%
    07:00 +17°C° 0 mm 0 mps 691 mmHg 83%
    08:00 +18°C° 0.1 mm 0 mps 692 mmHg 76%
    09:00 +22°C° 0.1 mm 1 mps 692 mmHg 70%
    10:00 +24°C° 0.1 mm 1 mps 692 mmHg 63%
    11:00 +24°C° 0.7 mm 1 mps 692 mmHg 62%
    12:00 +25°C° 0.7 mm 1 mps 691 mmHg 62%
    13:00 +25°C° 0.7 mm 1 mps 691 mmHg 62%
    14:00 +24°C° 1.6 mm 1 mps 691 mmHg 66%
    15:00 +23°C° 1.6 mm 1 mps 690 mmHg 71%
    16:00 +23°C° 1.6 mm 1 mps 690 mmHg 76%
    17:00 +22°C° 0.6 mm 1 mps 689 mmHg 79%
    18:00 +20°C° 0.6 mm 1 mps 689 mmHg 83%
    19:00 +19°C° 0.6 mm 1 mps 689 mmHg 87%
    20:00 +18°C° 0.2 mm 1 mps 689 mmHg 89%
    21:00 +15°C° 0.2 mm 0 mps 689 mmHg 91%
    22:00 +14°C° 0.2 mm 0 mps 689 mmHg 93%
    23:00 +13°C° 0 mm 0 mps 689 mmHg 94%

    30 May, Wednesday

    Time Temperature Precipitation Wind Pressure Humidity
    00:00 +13°C° 0 mm 0 mps 689 mmHg 94%
    01:00 +13°C° 0 mm 0 mps 689 mmHg 94%
    02:00 +12°C° 0 mm 0 mps 688 mmHg 94%
    03:00 +12°C° 0 mm 0 mps 688 mmHg 94%
    04:00 +13°C° 0 mm 1 mps 688 mmHg 94%
    05:00 +13°C° 0 mm 0 mps 688 mmHg 89%
    06:00 +15°C° 0 mm 0 mps 689 mmHg 85%
    07:00 +17°C° 0 mm 0 mps 689 mmHg 81%
    08:00 +19°C° 0 mm 0 mps 689 mmHg 71%
    09:00 +23°C° 0 mm 1 mps 690 mmHg 62%
    10:00 +25°C° 0 mm 1 mps 690 mmHg 53%
    11:00 +26°C° 0 mm 2 mps 690 mmHg 50%
    12:00 +26°C° 0 mm 2 mps 690 mmHg 48%
    13:00 +27°C° 0 mm 3 mps 690 mmHg 45%
    14:00 +26°C° 0.1 mm 3 mps 689 mmHg 46%
    15:00 +26°C° 0.1 mm 3 mps 689 mmHg 48%
    16:00 +26°C° 0.1 mm 3 mps 689 mmHg 49%
    17:00 +24°C° 0.1 mm 2 mps 688 mmHg 58%
    18:00 +21°C° 0.1 mm 2 mps 688 mmHg 68%
    19:00 +20°C° 0.1 mm 1 mps 688 mmHg 78%
    20:00 +19°C° 0.1 mm 1 mps 688 mmHg 83%
    21:00 +16°C° 0.1 mm 1 mps 688 mmHg 88%
    22:00 +15°C° 0.1 mm 1 mps 688 mmHg 92%
    23:00 +14°C° 0 mm 1 mps 687 mmHg 93%

    31 May, Thursday

    Time Temperature Precipitation Wind Pressure Humidity
    00:00 +14°C° 0 mm 1 mps 687 mmHg 94%
    01:00 +14°C° 0 mm 1 mps 687 mmHg 94%
    02:00 +13°C° 0 mm 1 mps 687 mmHg 95%
    03:00 +13°C° 0 mm 1 mps 687 mmHg 95%
    04:00 +13°C° 0 mm 1 mps 686 mmHg 95%
    05:00 +15°C° 0 mm 1 mps 687 mmHg 89%
    06:00 +16°C° 0 mm 1 mps 687 mmHg 84%
    07:00 +19°C° 0 mm 1 mps 687 mmHg 78%
    08:00 +21°C° 0.1 mm 1 mps 688 mmHg 71%
    09:00 +23°C° 0.1 mm 1 mps 688 mmHg 64%
    10:00 +25°C° 0.1 mm 2 mps 688 mmHg 57%
    11:00 +25°C° 0.4 mm 2 mps 688 mmHg 56%
    12:00 +26°C° 0.4 mm 2 mps 688 mmHg 55%
    13:00 +26°C° 0.4 mm 2 mps 688 mmHg 53%
    14:00 +26°C° 0.6 mm 2 mps 688 mmHg 57%
    15:00 +25°C° 0.6 mm 2 mps 688 mmHg 60%
    16:00 +25°C° 0.6 mm 2 mps 687 mmHg 63%
    17:00 +23°C° 0.5 mm 2 mps 687 mmHg 69%
    18:00 +21°C° 0.5 mm 2 mps 687 mmHg 76%
    19:00 +20°C° 0.5 mm 1 mps 687 mmHg 83%
    20:00 +19°C° 0.9 mm 1 mps 687 mmHg 86%
    21:00 +18°C° 0.9 mm 1 mps 687 mmHg 89%
    22:00 +16°C° 0.9 mm 1 mps 687 mmHg 91%
    23:00 +16°C° 0.8 mm 1 mps 687 mmHg 92%

    1 June, Friday

    Time Temperature Precipitation Wind Pressure Humidity
    00:00 +15°C° 0.8 mm 1 mps 687 mmHg 93%
    01:00 +15°C° 0.8 mm 1 mps 687 mmHg 93%
    02:00 +15°C° 0.8 mm 1 mps 687 mmHg 94%
    03:00 +14°C° 0.8 mm 1 mps 687 mmHg 94%
    04:00 +14°C° 0.8 mm 1 mps 687 mmHg 94%
    05:00 +15°C° 0.7 mm 1 mps 687 mmHg 92%
    06:00 +16°C° 0.7 mm 1 mps 687 mmHg 89%
    07:00 +18°C° 0.7 mm 1 mps 688 mmHg 87%
    08:00 +19°C° 1.1 mm 1 mps 688 mmHg 86%
    09:00 +19°C° 1.1 mm 1 mps 688 mmHg 85%
    10:00 +20°C° 1.1 mm 1 mps 689 mmHg 84%
    11:00 +19°C° 1.3 mm 1 mps 689 mmHg 85%
    12:00 +19°C° 1.3 mm 1 mps 689 mmHg 85%
    13:00 +19°C° 1.3 mm 1 mps 689 mmHg 86%
    14:00 +19°C° 0.8 mm 1 mps 689 mmHg 86%
    15:00 +19°C° 0.8 mm 1 mps 689 mmHg 87%
    16:00 +18°C° 0.8 mm 1 mps 688 mmHg 87%
    17:00 +18°C° 0.3 mm 1 mps 689 mmHg 88%
    18:00 +16°C° 0.3 mm 1 mps 689 mmHg 90%
    19:00 +15°C° 0.3 mm 0 mps 689 mmHg 91%
    20:00 +15°C° 0.2 mm 1 mps 689 mmHg 92%
    21:00 +14°C° 0.2 mm 1 mps 689 mmHg 93%
    22:00 +14°C° 0.2 mm 1 mps 690 mmHg 94%
    23:00 +13°C° 0 mm 1 mps 690 mmHg 94%
    Show more